User: anonymous   Login
Location: Caltech
(34.1382°N, 118.1253°W)
Time: 12:37:31
(UTC-08:00)
Language:

COSMOS 2428 - Orbit

View from above orbital plane
View from above orbital plane
View from above satellite
View from above satellite

Ground track
Ground track

The orbit data is extracted from the following two-line orbital elements,

1 31792U 07029A   17327.49150538  .00000354  00000-0  21800-3 0  9991
2 31792  70.9374  77.7718 0006691  22.6274 337.5140 14.12385646536564
Epoch (UTC): 23 November 2017 11:47:46
Eccentricity: 0.0006691
inclination: 70.9374°
perigee height: 846 km
apogee height: 856 km
right ascension of ascending node: 77.7718°
argument of perigee: 22.6274°
revolutions per day: 14.12385646
mean anomaly at epoch: 337.5140°
orbit number at epoch: 53656

The dashed part of the orbit path shows where the satellite is in the earth's shadow,  

DLR